[[{"header":{"parameterUnit":"m.s-1","parameterCategory":2,"la1":30.2991,"la2":30.254,"lo1":-89.0895,"lo2":-89.0444,"dy":0.0017,"dx":0.0017,"nx":28,"ny":28,"refTime":"2023-10-02T21:00:00:Z","depth":"0","parameterNumber":2,"parameterNumberName":"U-component_of_CURRENTS"},"data":[0,0,0,0,0,0,0,0,0,0,0,0,0,0,0,0,0,0,0,0,0,0,0,0,0,0,0,0,0,0,0,0,0,0,0,0,0,0,0,0,0,0,0,0,0,0,0,0,0,0,0,0,0,0,0,0,0,0,0.2978,0.2979,0,0.3088,0.3089,0.3091,0.3133,0.3132,0.3132,0.3132,0.3153,0.3154,0.3155,0,0,0,0,0,0,0,0,0,0,0,0,0,0.2899,0.29,0.2978,0.2979,0.298,0.3088,0.3089,0.3091,0.3133,0.3132,0.3132,0.3131,0.3153,0.3154,0.3155,0,0,0,0,0,0,0,0,0,0,0,0,0,0.2965,0.29,0.2978,0.3013,0.3017,0.3087,0.309,0.3092,0.3133,0.3132,0.3132,0.3131,0.3153,0.3154,0.3156,0.3179,0,0,0.316,0.3161,0,0,0,0,0,0,0,0,0.2961,0.2968,0.3007,0.3011,0.3016,0.3095,0.307,0.3116,0.3133,0.3091,0.3132,0.3131,0.3125,0.3129,0.3154,0.318,0.3181,0.316,0.3161,0.3162,0.3162,0,0,0,0,0,0,0,0.2956,0.2964,0.3023,0.3008,0.3013,0.3056,0.3064,0.308,0.311,0.3094,0.3097,0.3107,0.3127,0.3153,0.3155,0.3181,0.316,0.3162,0.3163,0.3163,0.327,0.3272,0,0,0,0,0,0,0.2936,0.2959,0.3019,0.3026,0.2984,0.3058,0.3067,0.3071,0.3112,0.3118,0.3108,0.3109,0.3151,0.3153,0.3156,0.3229,0.3162,0.3163,0.3164,0.3268,0.3271,0.3273,0,0,0,0,0,0,0.2933,0.294,0.3015,0.2994,0.3007,0.3059,0.3064,0.3074,0.3106,0.3123,0.3127,0.313,0.315,0.3154,0.3189,0.3228,0.3164,0.3165,0.3266,0.3269,0.3272,0.3346,0,0,0,0,0,0,0.2931,0.2938,0.2942,0.2993,0.3007,0.3067,0.3065,0.3076,0.3112,0.3115,0.3143,0.3145,0.315,0.3187,0.319,0.3229,0.3166,0.3264,0.3267,0.3271,0.3341,0.3351,0.336,0,0,0,0,0,0.2927,0.2936,0.2941,0.2949,0.3008,0.3068,0.308,0.3116,0.3114,0.314,0.316,0.3144,0.3212,0.319,0.3193,0.3233,0.3262,0.3266,0.3271,0.3337,0.3349,0.336,0,0,0,0,0,0,0.2905,0.2943,0.2949,0.2968,0.3017,0.3074,0.31,0.3121,0.3161,0.316,0.3168,0.3172,0.3221,0.3215,0.319,0.3275,0.3235,0.324,0.3284,0.3296,0.3305,0.3305,0.3168,0,0,0,0,0,0.2899,0.2917,0.2962,0.2982,0.3001,0.305,0.3079,0.3107,0.3145,0.3163,0.3183,0.3207,0.3243,0.3257,0.3283,0.3325,0.3342,0.3354,0.3363,0.3371,0.3375,0.3442,0.3458,0.3287,0.3287,0.3287,0,0,0.2896,0.292,0.293,0.2979,0.3015,0.3061,0.3067,0.3117,0.3164,0.3157,0.3218,0.3238,0.3262,0.3319,0.3339,0.3318,0.3433,0.3376,0.3383,0.3383,0.3448,0.3465,0.348,0.329,0.329,0.3289,0,0,0.2904,0.2918,0.2938,0.2981,0.3037,0.3074,0.3088,0.315,0.3185,0.3244,0.3259,0.3304,0.3346,0.3385,0.3406,0.3479,0.3481,0.3485,0.3533,0.3599,0.3613,0.3626,0.3688,0.3706,0.3489,0.3489,0.3489,0,0.2898,0.2926,0.2958,0.2996,0.3035,0.3078,0.3123,0.3174,0.3243,0.3282,0.3267,0.3371,0.3383,0.3472,0.35,0.3501,0.3535,0.3488,0.3611,0.3624,0.3636,0.3696,0.3715,0.3493,0.3493,0.3492,0.3492,0,0.2926,0.2955,0.2974,0.3033,0.3085,0.313,0.32,0.3253,0.329,0.3343,0.3431,0.3463,0.3524,0.3541,0.3542,0.3642,0.3639,0.3617,0.3582,0.3658,0.3716,0.3734,0.3499,0.3497,0.3496,0.3495,0,0,0.289,0.2975,0.298,0.3014,0.3107,0.3149,0.3238,0.3332,0.3394,0.3459,0.3543,0.3612,0.3631,0.3655,0.3672,0.3724,0.3841,0.3708,0.3709,0.3768,0.3996,0.3978,0.3995,0.3843,0.3846,0.3849,0.4009,0,0.29,0.2961,0.3015,0.3089,0.3126,0.3208,0.3293,0.3388,0.3461,0.3553,0.3615,0.3692,0.3676,0.3709,0.3767,0.3823,0.3889,0.3799,0.3914,0.3917,0.3891,0.4016,0.377,0.389,0.4026,0.4029,0.4031,0,0.2905,0.2946,0.3008,0.3115,0.3142,0.3199,0.3333,0.3416,0.3562,0.3623,0.3716,0.3767,0.3876,0.3832,0.3983,0.393,0.3972,0.4004,0.4011,0.3977,0.3933,0.3833,0.3918,0.3802,0.4059,0.4057,0.4055,0,0.2849,0.2942,0.2987,0.3022,0.3151,0.3203,0.328,0.3428,0.3511,0.3664,0.3749,0.3867,0.3946,0.4017,0.4102,0.4052,0.426,0.4195,0.4224,0.4223,0.4026,0.4002,0.4004,0.4303,0.4303,0.4302,0.4302,0,0.2832,0.2866,0.2957,0.298,0.305,0.3162,0.3257,0.3362,0.3519,0.3633,0.3771,0.3886,0.3998,0.413,0.4163,0.4277,0.4321,0.4267,0.4277,0.4047,0.4025,0.3922,0.3878,0.4308,0.4307,0.4306,0.4305,0,0.2764,0.2824,0.2873,0.2986,0.3019,0.3066,0.3217,0.3294,0.347,0.3625,0.3684,0.3928,0.4112,0.4232,0.4372,0.4372,0.4331,0.448,0.421,0.4185,0.406,0.4029,0.3946,0.3837,0.4525,0.4526,0.4526,0,0.2733,0.2749,0.284,0.2863,0.2907,0.2988,0.3055,0.3231,0.3327,0.3646,0.3722,0.398,0.4123,0.4367,0.4407,0.4499,0.4373,0.4342,0.4193,0.4059,0.4032,0.3882,0.3783,0.3966,0.3962,0.3959,0.3956,0,0.2672,0.2701,0.274,0.2781,0.2831,0.2896,0.3007,0.3071,0.3309,0.3461,0.3692,0.3834,0.4112,0.4127,0.4297,0.4306,0.4098,0.4279,0.4194,0.3659,0.3438,0.3333,0.3868,0.3927,0.393,0.3932,0.3933,0.3934,0.2616,0.262,0.2666,0.2695,0.2744,0.2793,0.2809,0.295,0.3077,0.3276,0.3504,0.3649,0.3807,0.4001,0.402,0.391,0.3937,0.3757,0.3755,0.3637,0.3441,0.3937,0.3975,0.3978,0.3981,0.3983,0.3985,0,0.2538,0.2555,0.2581,0.2605,0.2601,0.2674,0.2767,0.2772,0.2848,0.3054,0.3196,0.3324,0.3355,0.3486,0.3504,0.3391,0.3194,0.33,0.2983,0.2934,0.3411,0.3294,0.3118,0.3118,0.3118,0.3119,0.3119,0.3119,0.2504,0.2487,0.2495,0.2448,0.2461,0.2428,0.2447,0.2482,0.2586,0.267,0.2747,0.288,0.3112,0.317,0.307,0.2982,0.2756,0.2606,0.2691,0.2972,0.3011,0.3048,0.2926,0.2677,0.2676,0.2,0.1995,0.1992]},{"header":{"parameterUnit":"m.s-1","parameterCategory":2,"la1":30.2991,"la2":30.254,"lo1":-89.0895,"lo2":-89.0444,"dy":0.0017,"dx":0.0017,"nx":28,"ny":28,"refTime":"2023-10-02T21:00:00:Z","depth":"0","parameterNumber":3,"parameterNumberName":"V-component_of_CURRENTS"},"data":[0,0,0,0,0,0,0,0,0,0,0,0,0,0,0,0,0,0,0,0,0,0,0,0,0,0,0,0,0,0,0,0,0,0,0,0,0,0,0,0,0,0,0,0,0,0,0,0,0,0,0,0,0,0,0,0,0,0,-0.0035,-0.0036,0,-0.0146,-0.0148,-0.0149,-0.0217,-0.0217,-0.0217,-0.0217,-0.0379,-0.0383,-0.0387,0,0,0,0,0,0,0,0,0,0,0,0,0,0.0011,0.0011,-0.0035,-0.0036,-0.0037,-0.0146,-0.0148,-0.0149,-0.0216,-0.0217,-0.0217,-0.0217,-0.0377,-0.0382,-0.0387,0,0,0,0,0,0,0,0,0,0,0,0,0,-0.0048,0.0011,-0.0034,-0.0081,-0.0086,-0.0145,-0.0148,-0.015,-0.0216,-0.0217,-0.0217,-0.0217,-0.0376,-0.0382,-0.0388,-0.0427,0,0,-0.0408,-0.041,0,0,0,0,0,0,0,0,-0.0045,-0.005,-0.0073,-0.0078,-0.0084,-0.0165,-0.0191,-0.0244,-0.0216,-0.017,-0.0217,-0.0217,-0.031,-0.0321,-0.0346,-0.0434,-0.0441,-0.0408,-0.0412,-0.0415,-0.0417,0,0,0,0,0,0,0,-0.0041,-0.0047,-0.0082,-0.0074,-0.0081,-0.0134,-0.0142,-0.0202,-0.0242,-0.0174,-0.0179,-0.0186,-0.0313,-0.034,-0.035,-0.0443,-0.0408,-0.0414,-0.0418,-0.042,-0.0619,-0.062,0,0,0,0,0,0,-0.0015,-0.0042,-0.0078,-0.0085,-0.006,-0.0134,-0.0143,-0.0141,-0.024,-0.0254,-0.0186,-0.0189,-0.0329,-0.0343,-0.0356,-0.0417,-0.0415,-0.0421,-0.0425,-0.0617,-0.0619,-0.0621,0,0,0,0,0,0,-0.0013,-0.0016,-0.0074,-0.0064,-0.0075,-0.0133,-0.0132,-0.0143,-0.0163,-0.0248,-0.0263,-0.0192,-0.0329,-0.0347,-0.0405,-0.0423,-0.0424,-0.043,-0.0616,-0.0618,-0.062,-0.0531,0,0,0,0,0,0,-0.0011,-0.0015,-0.001,-0.0062,-0.0074,-0.0098,-0.0132,-0.0145,-0.0166,-0.0171,-0.0259,-0.0274,-0.0331,-0.0395,-0.0412,-0.0432,-0.0435,-0.0614,-0.0617,-0.0619,-0.0532,-0.053,-0.0528,0,0,0,0,0,-0.0009,0.0003,-0.0008,-0.0013,-0.0063,-0.0097,-0.0108,-0.0153,-0.0166,-0.0172,-0.0232,-0.0271,-0.0425,-0.0401,-0.042,-0.0442,-0.0613,-0.0616,-0.0619,-0.0533,-0.0531,-0.0528,0,0,0,0,0,0,0.0021,-0.0004,-0.0017,-0.0014,-0.0047,-0.0107,-0.0115,-0.0143,-0.0196,-0.02,-0.0278,-0.0298,-0.0359,-0.0415,-0.0387,-0.0512,-0.0531,-0.0538,-0.0459,-0.0457,-0.0455,-0.0408,-0.044,0,0,0,0,0,0.0034,0.004,0.0001,0.0003,-0.0006,-0.0058,-0.0078,-0.0106,-0.0156,-0.0178,-0.024,-0.0317,-0.0391,-0.043,-0.0499,-0.0558,-0.0579,-0.0593,-0.0591,-0.0588,-0.0566,-0.0624,-0.0623,-0.0631,-0.0631,-0.0631,0,0,0.0046,0.0033,0.0035,0.001,-0.0018,-0.0027,-0.007,-0.009,-0.0104,-0.0189,-0.0229,-0.0304,-0.0404,-0.0472,-0.0507,-0.0518,-0.0594,-0.0592,-0.0589,-0.0568,-0.0627,-0.0626,-0.0625,-0.0633,-0.0633,-0.0633,0,0,0.0077,0.0065,0.0082,0.0062,0.0033,-0.0,0.0002,-0.0051,-0.0079,-0.0125,-0.0199,-0.0275,-0.0378,-0.0457,-0.0511,-0.054,-0.0576,-0.0577,-0.053,-0.0587,-0.0585,-0.0585,-0.0581,-0.058,-0.058,-0.058,-0.058,0,0.0093,0.0109,0.0078,0.0086,0.0078,0.0022,0.0032,-0.0008,-0.0076,-0.0098,-0.0124,-0.0286,-0.0372,-0.0463,-0.0481,-0.0532,-0.0546,-0.0524,-0.0579,-0.0579,-0.0579,-0.0576,-0.0576,-0.0576,-0.0577,-0.0577,-0.0578,0,0.0134,0.0145,0.0153,0.0149,0.0133,0.0132,0.0084,0.0059,0.0019,-0.0029,-0.011,-0.0228,-0.032,-0.038,-0.0439,-0.0504,-0.0503,-0.0559,-0.0569,-0.0572,-0.057,-0.0571,-0.0571,-0.0572,-0.0573,-0.0574,0,0,0.0181,0.0184,0.0189,0.0203,0.017,0.0166,0.0145,0.0108,0.0104,0.0014,-0.0004,-0.0162,-0.0218,-0.0283,-0.0383,-0.0446,-0.0467,-0.0494,-0.0499,-0.0458,-0.0539,-0.048,-0.0476,-0.0528,-0.0529,-0.0529,-0.0523,0,0.0225,0.0265,0.0247,0.0279,0.0296,0.0246,0.0237,0.0194,0.0143,0.0109,-0.0018,-0.008,-0.0185,-0.0227,-0.0308,-0.043,-0.0473,-0.046,-0.0569,-0.0571,-0.0494,-0.0478,-0.0427,-0.0412,-0.0525,-0.0525,-0.0525,0,0.0276,0.0298,0.0344,0.036,0.0364,0.0372,0.0359,0.0341,0.0269,0.0227,0.0142,0.0056,-0.0056,-0.014,-0.0316,-0.0298,-0.0398,-0.0489,-0.0493,-0.0466,-0.0516,-0.0439,-0.0412,-0.0574,-0.0529,-0.0529,-0.0528,0,0.0339,0.0368,0.0413,0.0417,0.0419,0.0435,0.0431,0.0382,0.0384,0.031,0.0314,0.016,0.011,-0.0055,-0.0232,-0.0274,-0.0392,-0.0483,-0.0515,-0.0511,-0.0501,-0.0494,-0.0617,-0.0585,-0.0585,-0.0585,-0.0585,0,0.0397,0.0434,0.0454,0.0481,0.054,0.0513,0.0559,0.0525,0.0504,0.0534,0.039,0.0397,0.0129,0.003,-0.0161,-0.0308,-0.0335,-0.0477,-0.0508,-0.0467,-0.0457,-0.0627,-0.0722,-0.0585,-0.0585,-0.0585,-0.0585,0,0.0457,0.0469,0.0527,0.0557,0.0576,0.0619,0.0661,0.0688,0.0659,0.0701,0.0694,0.0583,0.0465,0.0231,-0.0012,-0.0182,-0.0427,-0.0405,-0.0299,-0.0317,-0.0511,-0.0602,-0.0725,-0.0788,-0.0443,-0.0441,-0.044,0,0.0491,0.053,0.0595,0.064,0.0662,0.0722,0.0767,0.0761,0.0806,0.0833,0.0876,0.0795,0.0767,0.0467,0.0153,-0.012,-0.0332,-0.0266,-0.0363,-0.0483,-0.061,-0.0692,-0.0744,-0.0309,-0.0307,-0.0305,-0.0304,0,0.0556,0.0581,0.0629,0.0724,0.0792,0.0867,0.0943,0.1009,0.1029,0.1099,0.1185,0.1182,0.093,0.0682,0.0313,0.0101,-0.035,-0.0236,-0.042,-0.0543,-0.0584,-0.067,-0.0318,-0.0288,-0.029,-0.0291,-0.0292,-0.0292,0.0606,0.0653,0.0722,0.0811,0.0892,0.1006,0.1088,0.1195,0.1323,0.1446,0.1435,0.1479,0.1114,0.0631,0.0335,-0.0171,-0.0219,-0.0362,-0.0464,-0.0537,-0.0597,-0.0159,-0.0136,-0.0137,-0.0137,-0.0138,-0.0138,0,0.0666,0.0719,0.0803,0.0913,0.101,0.1045,0.1199,0.13,0.1491,0.1627,0.1725,0.1607,0.1168,0.0671,0.0001,-0.036,-0.0526,-0.0567,-0.0714,-0.0762,-0.0423,-0.0417,-0.038,-0.038,-0.038,-0.038,-0.0379,-0.0379,0.0698,0.0789,0.083,0.0995,0.1075,0.1222,0.1321,0.1495,0.1632,0.1827,0.189,0.1899,0.1542,0.0347,-0.0488,-0.0679,-0.0952,-0.0966,-0.1132,-0.0948,-0.0939,-0.0931,-0.095,-0.1026,-0.1026,-0.1426,-0.1431,-0.1434]}],[{"header":{"parameterUnit":"m.s-1","parameterCategory":2,"la1":30.2991,"la2":30.254,"lo1":-89.0895,"lo2":-89.0444,"dy":0.0017,"dx":0.0017,"nx":28,"ny":28,"refTime":"2023-10-02T21:00:00:Z","depth":"2","parameterNumber":2,"parameterNumberName":"U-component_of_CURRENTS"},"data":[0,0,0,0,0,0,0,0,0,0,0,0,0,0,0,0,0,0,0,0,0,0,0,0,0,0,0,0,0,0,0,0,0,0,0,0,0,0,0,0,0,0,0,0,0,0,0,0,0,0,0,0,0,0,0,0,0,0,0.2681,0.2682,0,0.2701,0.2701,0.2702,0.2695,0.2694,0.2694,0.2694,0.272,0.2721,0.2722,0,0,0,0,0,0,0,0,0,0,0,0,0,0.2651,0.2652,0.2681,0.2682,0.2682,0.2701,0.2701,0.2702,0.2695,0.2694,0.2694,0.2693,0.2719,0.2721,0.2722,0,0,0,0,0,0,0,0,0,0,0,0,0,0.2666,0.2652,0.2681,0.2681,0.2682,0.2701,0.2701,0.2702,0.2695,0.2694,0.2694,0.2693,0.2719,0.2721,0.2722,0.2743,0,0,0.2727,0.2728,0,0,0,0,0,0,0,0,0.2665,0.2667,0.2681,0.2681,0.2682,0.2696,0.2701,0.2716,0.2695,0.2689,0.2694,0.2693,0.2713,0.2715,0.2719,0.2744,0.2745,0.2727,0.2728,0.2729,0.2729,0,0,0,0,0,0,0,0.2664,0.2667,0.2688,0.2681,0.2682,0.2685,0.2687,0.2703,0.2704,0.269,0.2689,0.2693,0.2713,0.2718,0.272,0.2746,0.2727,0.2728,0.2729,0.273,0.2848,0.285,0,0,0,0,0,0,0.2663,0.2666,0.2688,0.2689,0.2673,0.2686,0.2688,0.2691,0.2703,0.2705,0.2693,0.2692,0.2715,0.2718,0.2721,0.2792,0.2729,0.273,0.2731,0.2846,0.2849,0.2851,0,0,0,0,0,0,0.2663,0.2665,0.2687,0.2678,0.2681,0.2687,0.2691,0.2692,0.2708,0.2706,0.2707,0.271,0.2715,0.2718,0.2739,0.2791,0.2731,0.2732,0.2843,0.2847,0.285,0.2906,0,0,0,0,0,0,0.2662,0.2665,0.2671,0.2678,0.2682,0.2707,0.2692,0.2693,0.271,0.271,0.2721,0.2722,0.2715,0.2737,0.2741,0.2792,0.2734,0.2841,0.2845,0.2849,0.2901,0.2911,0.2919,0,0,0,0,0,0.2661,0.267,0.2671,0.2674,0.2689,0.2707,0.271,0.2712,0.2712,0.2723,0.2726,0.2722,0.2767,0.2739,0.2743,0.2797,0.2839,0.2844,0.2848,0.2897,0.2909,0.2919,0,0,0,0,0,0,0.2655,0.267,0.2672,0.2684,0.2699,0.2707,0.2718,0.2724,0.2737,0.2738,0.2735,0.2736,0.2786,0.278,0.275,0.2846,0.281,0.2816,0.2846,0.2856,0.2865,0.2877,0.2735,0,0,0,0,0,0.2659,0.2673,0.2685,0.2697,0.2706,0.2717,0.2727,0.2732,0.2742,0.2748,0.2756,0.2775,0.281,0.282,0.2845,0.2882,0.2895,0.2926,0.2934,0.2942,0.2957,0.3022,0.3038,0.2867,0.2867,0.2867,0,0,0.2658,0.267,0.2677,0.2698,0.2709,0.2729,0.2722,0.2744,0.2768,0.275,0.2786,0.2808,0.2829,0.2877,0.29,0.2875,0.2995,0.2948,0.2954,0.2965,0.3029,0.3046,0.3061,0.2871,0.287,0.2869,0,0,0.2667,0.2679,0.2694,0.2712,0.2736,0.2747,0.2758,0.2779,0.2796,0.2829,0.2839,0.2883,0.2916,0.2948,0.2967,0.3041,0.3046,0.306,0.3106,0.317,0.3184,0.3197,0.322,0.3235,0.3056,0.3057,0.3057,0,0.2667,0.2684,0.2701,0.2724,0.274,0.2758,0.2779,0.2806,0.2832,0.2859,0.2847,0.2941,0.2956,0.3034,0.3064,0.3063,0.3086,0.3059,0.3181,0.3194,0.3206,0.3227,0.3242,0.306,0.306,0.3059,0.3059,0,0.2684,0.2704,0.2717,0.2751,0.2774,0.2796,0.2831,0.2866,0.289,0.2919,0.3001,0.3025,0.3078,0.3107,0.3107,0.3215,0.3199,0.3189,0.315,0.3227,0.3243,0.3258,0.3065,0.3063,0.3062,0.3062,0,0,0.266,0.2717,0.2721,0.2742,0.2789,0.2807,0.2865,0.292,0.2968,0.3014,0.3084,0.3158,0.318,0.3206,0.3226,0.3287,0.3388,0.3281,0.3282,0.3296,0.3513,0.3415,0.3421,0.3405,0.3409,0.3411,0.3483,0,0.2664,0.2705,0.2736,0.2778,0.2799,0.2846,0.29,0.296,0.301,0.3085,0.315,0.3224,0.3215,0.3256,0.3316,0.3383,0.3434,0.3369,0.3443,0.3445,0.3344,0.3438,0.3178,0.3213,0.3497,0.35,0.3501,0,0.2661,0.2692,0.2729,0.2796,0.2811,0.2846,0.2932,0.2985,0.31,0.3152,0.3235,0.328,0.3389,0.3368,0.3502,0.3463,0.3497,0.3535,0.3538,0.3441,0.3377,0.3187,0.3229,0.3526,0.3524,0.3522,0.3521,0,0.2621,0.2683,0.2711,0.2732,0.2814,0.2852,0.2904,0.3006,0.3062,0.3204,0.3271,0.3376,0.3458,0.3523,0.3586,0.3561,0.3725,0.3686,0.3624,0.3616,0.3405,0.3372,0.3786,0.3786,0.3786,0.3785,0.3785,0,0.2601,0.2623,0.2698,0.2713,0.2761,0.2835,0.2902,0.2984,0.3103,0.318,0.3302,0.3375,0.3512,0.3601,0.3628,0.3672,0.3751,0.3657,0.3645,0.3414,0.3383,0.3661,0.3646,0.3788,0.3787,0.3787,0.3786,0,0.2544,0.2593,0.2628,0.2713,0.2739,0.2776,0.2881,0.2935,0.3077,0.3186,0.3242,0.3416,0.3542,0.3639,0.3765,0.3728,0.3774,0.3765,0.3467,0.3419,0.3604,0.3591,0.3698,0.3696,0.3694,0.3692,0.3691,0,0.2516,0.253,0.2604,0.2624,0.266,0.2725,0.2771,0.2904,0.2963,0.318,0.3226,0.3411,0.3484,0.3632,0.3647,0.3682,0.3757,0.3435,0.3339,0.3626,0.3605,0.3595,0.3585,0.3075,0.3068,0.3063,0.3059,0,0.246,0.249,0.252,0.2559,0.2599,0.2638,0.2717,0.2756,0.2924,0.3018,0.3138,0.3218,0.3393,0.3323,0.3407,0.3381,0.3405,0.3328,0.3741,0.3134,0.3043,0.302,0.303,0.3012,0.3017,0.302,0.3023,0.3025,0.2415,0.2418,0.2459,0.2483,0.2522,0.2541,0.2539,0.2623,0.2685,0.2796,0.2941,0.2985,0.3066,0.3055,0.2982,0.2955,0.3181,0.3034,0.3048,0.3069,0.2981,0.2892,0.2814,0.2817,0.282,0.2822,0.2825,0,0.2345,0.2359,0.2381,0.2395,0.2383,0.2444,0.2485,0.2454,0.2461,0.2583,0.2644,0.2497,0.2476,0.2566,0.2459,0.2465,0.2425,0.2359,0.2285,0.2335,0.2379,0.2253,0.1894,0.1891,0.1887,0.1884,0,0,0.2313,0.2294,0.2296,0.2243,0.2255,0.2201,0.2196,0.2168,0.2202,0.2175,0.2179,0.2367,0.2484,0.2149,0.2124,0.1985,0.2131,0.1908,0.2665,0.2629,0.2667,0.2793,0.2659,0,0,0,0,0]},{"header":{"parameterUnit":"m.s-1","parameterCategory":2,"la1":30.2991,"la2":30.254,"lo1":-89.0895,"lo2":-89.0444,"dy":0.0017,"dx":0.0017,"nx":28,"ny":28,"refTime":"2023-10-02T21:00:00:Z","depth":"2","parameterNumber":3,"parameterNumberName":"V-component_of_CURRENTS"},"data":[0,0,0,0,0,0,0,0,0,0,0,0,0,0,0,0,0,0,0,0,0,0,0,0,0,0,0,0,0,0,0,0,0,0,0,0,0,0,0,0,0,0,0,0,0,0,0,0,0,0,0,0,0,0,0,0,0,0,0.008,0.008,0,0.0038,0.0037,0.0037,0.0009,0.0009,0.0009,0.0008,-0.0064,-0.0066,-0.0068,0,0,0,0,0,0,0,0,0,0,0,0,0,0.0097,0.0097,0.008,0.008,0.0079,0.0038,0.0037,0.0037,0.0009,0.0009,0.0009,0.0008,-0.0064,-0.0066,-0.0068,0,0,0,0,0,0,0,0,0,0,0,0,0,0.0075,0.0097,0.008,0.0061,0.0058,0.0038,0.0037,0.0036,0.0009,0.0009,0.0009,0.0008,-0.0063,-0.0066,-0.0068,-0.008,0,0,-0.0077,-0.0078,0,0,0,0,0,0,0,0,0.0077,0.0075,0.0064,0.0062,0.0059,0.0029,0.0016,-0.0004,0.0009,0.0028,0.0008,0.0008,-0.0036,-0.0041,-0.0048,-0.0084,-0.0087,-0.0077,-0.0079,-0.008,-0.008,0,0,0,0,0,0,0,0.0078,0.0076,0.0063,0.0064,0.0061,0.004,0.0037,0.0012,-0.0003,0.0026,0.0024,0.0019,-0.0037,-0.0045,-0.005,-0.0088,-0.0077,-0.0079,-0.0081,-0.0082,-0.0135,-0.0134,0,0,0,0,0,0,0.0086,0.0078,0.0065,0.0062,0.0068,0.004,0.0037,0.0039,-0.0002,-0.0008,0.002,0.0018,-0.0041,-0.0047,-0.0053,-0.0053,-0.008,-0.0082,-0.0084,-0.0135,-0.0135,-0.0134,0,0,0,0,0,0,0.0087,0.0086,0.0066,0.0069,0.0065,0.004,0.0042,0.0038,0.0034,-0.0006,-0.0013,0.0021,-0.0041,-0.0049,-0.0067,-0.0057,-0.0083,-0.0086,-0.0135,-0.0135,-0.0134,-0.0064,0,0,0,0,0,0,0.0088,0.0087,0.0092,0.007,0.0065,0.0065,0.0042,0.0037,0.0031,0.0029,-0.0008,-0.0015,-0.0042,-0.0063,-0.007,-0.0061,-0.0088,-0.0135,-0.0135,-0.0135,-0.0066,-0.0061,-0.0056,0,0,0,0,0,0.0089,0.0101,0.0092,0.009,0.0073,0.0065,0.0061,0.0042,0.0032,0.0036,0.001,-0.0014,-0.0066,-0.0065,-0.0073,-0.0064,-0.0136,-0.0135,-0.0135,-0.0068,-0.0062,-0.0057,0,0,0,0,0,0,0.011,0.0098,0.0089,0.0096,0.0085,0.0061,0.0063,0.0048,0.0031,0.0028,-0.001,-0.0019,-0.0034,-0.0059,-0.0057,-0.008,-0.0105,-0.0106,-0.0052,-0.0046,-0.0042,-0.0027,-0.009,0,0,0,0,0,0.0117,0.0125,0.0106,0.0113,0.011,0.0087,0.0081,0.0069,0.005,0.0043,0.0015,-0.0015,-0.0039,-0.0049,-0.0078,-0.0086,-0.0114,-0.0087,-0.0082,-0.0078,-0.0072,-0.0097,-0.0094,-0.0133,-0.0133,-0.0133,0,0,0.0127,0.0122,0.0126,0.0119,0.0108,0.0113,0.0084,0.0082,0.0086,0.0037,0.0033,-0.0001,-0.0039,-0.005,-0.0059,-0.0068,-0.0083,-0.0077,-0.0073,-0.007,-0.0097,-0.0093,-0.0089,-0.0133,-0.0133,-0.0133,0,0,0.0156,0.0148,0.0164,0.0159,0.0148,0.0136,0.0139,0.0118,0.0109,0.0098,0.0064,0.0042,0.0003,-0.0016,-0.0033,-0.0018,-0.006,-0.0031,0.0011,-0.0013,-0.001,-0.0007,-0.0041,-0.0042,-0.0024,-0.0024,-0.0024,0,0.0168,0.0186,0.0167,0.018,0.0184,0.0151,0.0171,0.0156,0.0131,0.0128,0.0106,0.0056,0.0021,0.0015,0.0016,-0.0005,-0.0031,-0.0005,-0.0005,-0.0003,-0.0002,-0.0037,-0.0039,-0.002,-0.0021,-0.0021,-0.0021,0,0.0207,0.022,0.023,0.0238,0.0239,0.025,0.023,0.0228,0.0209,0.0188,0.0172,0.0124,0.0097,0.0081,0.005,0.0046,0.002,0.0002,-0.0015,0.0007,-0.0032,-0.0036,-0.0015,-0.0017,-0.0018,-0.0018,0,0,0.0244,0.0257,0.0262,0.028,0.0273,0.0283,0.029,0.029,0.0303,0.0261,0.0274,0.0218,0.0185,0.0164,0.0125,0.0103,0.0083,0.006,0.0057,0.0035,0.0021,0.0004,-0.0002,0.0066,0.0066,0.0066,-0.0011,0,0.0284,0.0326,0.032,0.0363,0.0385,0.0365,0.0379,0.0371,0.0353,0.0354,0.03,0.0289,0.022,0.0215,0.0177,0.0116,0.0078,0.0105,-0.0005,-0.0008,-0.0018,-0.0004,0.003,-0.0035,-0.0015,-0.0015,-0.0016,0,0.0331,0.0354,0.0405,0.0437,0.0446,0.0466,0.0493,0.0501,0.0482,0.0467,0.0436,0.0388,0.0349,0.0289,0.0183,0.0203,0.0111,0.0054,0.0049,0.0008,-0.0031,-0.0055,-0.0043,-0.0022,-0.0021,-0.0021,-0.0021,0,0.0383,0.0419,0.0467,0.0476,0.0501,0.0527,0.0542,0.0538,0.0562,0.0545,0.0561,0.0484,0.0469,0.0352,0.0218,0.02,0.0101,0.0062,-0.0047,-0.005,-0.0054,-0.0057,-0.0027,-0.0027,-0.0027,-0.0027,-0.0027,0,0.0435,0.0473,0.0498,0.0526,0.0591,0.0586,0.065,0.0649,0.0666,0.0713,0.0626,0.0649,0.0484,0.0404,0.0257,0.0106,0.0124,-0.0037,-0.0066,-0.003,-0.003,-0.0046,-0.0047,-0.003,-0.0029,-0.0029,-0.0028,0,0.0486,0.05,0.0558,0.0599,0.062,0.0668,0.0732,0.0774,0.0778,0.0843,0.0847,0.0779,0.0675,0.05,0.0322,0.0174,0.0024,-0.0044,0.0004,-0.0018,-0.0128,-0.0125,-0.0175,-0.0176,-0.0177,-0.0178,-0.0179,0,0.0516,0.0552,0.0618,0.0661,0.0685,0.0753,0.0806,0.0831,0.0888,0.0931,0.0976,0.0896,0.0852,0.058,0.032,0.0064,0.0021,-0.0087,-0.0122,-0.0118,-0.0142,-0.0137,-0.0132,-0.0108,-0.0108,-0.0108,-0.0108,0,0.0575,0.0597,0.0645,0.0732,0.0799,0.0877,0.0959,0.1024,0.1072,0.1126,0.1182,0.1152,0.0899,0.0655,0.0302,0.0127,-0.0042,-0.0098,-0.0093,-0.0071,-0.006,-0.0081,-0.0077,-0.0108,-0.0108,-0.0108,-0.0108,-0.0108,0.062,0.0661,0.0726,0.0809,0.0889,0.0995,0.1073,0.1167,0.1273,0.1362,0.133,0.1291,0.1013,0.0567,0.0265,-0.0056,-0.0049,-0.0168,-0.0166,-0.0164,-0.0138,-0.0128,-0.0186,-0.0186,-0.0186,-0.0187,-0.0187,0,0.0674,0.072,0.0798,0.0899,0.0988,0.1026,0.117,0.1249,0.1387,0.1456,0.1489,0.1229,0.095,0.0623,0.0153,-0.0132,-0.0156,-0.0227,-0.0186,-0.0182,-0.018,-0.0154,-0.0207,-0.0208,-0.0209,-0.021,0,0,0.0703,0.0782,0.0817,0.0965,0.1039,0.1172,0.126,0.138,0.1462,0.1528,0.1508,0.1444,0.1058,0.0714,0.0336,0.0065,0.0001,0.0005,0.0056,0.0153,0.0158,-0.0109,-0.0061,0,0,0,0,0]}],[{"header":{"parameterUnit":"m.s-1","parameterCategory":2,"la1":30.2991,"la2":30.254,"lo1":-89.0895,"lo2":-89.0444,"dy":0.0017,"dx":0.0017,"nx":28,"ny":28,"refTime":"2023-10-02T21:00:00:Z","depth":"4","parameterNumber":2,"parameterNumberName":"U-component_of_CURRENTS"},"data":[0,0,0,0,0,0,0,0,0,0,0,0,0,0,0,0,0,0,0,0,0,0,0,0,0,0,0,0,0,0,0,0,0,0,0,0,0,0,0,0,0,0,0,0,0,0,0,0,0,0,0,0,0,0,0,0,0,0,0.1779,0.178,0,0.1765,0.1765,0.1764,0.1777,0.1778,0.1779,0.178,0.1784,0.1783,0.1782,0,0,0,0,0,0,0,0,0,0,0,0,0,0.1739,0.174,0.1779,0.178,0.178,0.1765,0.1765,0.1764,0.1777,0.1778,0.1779,0.1781,0.1784,0.1783,0.1782,0,0,0,0,0,0,0,0,0,0,0,0,0,0.1739,0.174,0.1779,0.1789,0.179,0.1766,0.1765,0.1764,0.1777,0.1778,0.178,0.1781,0.1785,0.1783,0.1782,0.1743,0,0,0.1778,0.1778,0,0,0,0,0,0,0,0,0.1739,0.174,0.1787,0.1788,0.1789,0.1779,0.1752,0.176,0.1776,0.1776,0.178,0.1782,0.1786,0.1785,0.1771,0.1744,0.1744,0.1778,0.1777,0.1777,0.1776,0,0,0,0,0,0,0,0.1739,0.174,0.1768,0.1787,0.1789,0.1767,0.1769,0.1753,0.1769,0.1776,0.1778,0.1785,0.1787,0.1772,0.1771,0.1744,0.1778,0.1777,0.1776,0.1776,0.1788,0.1789,0,0,0,0,0,0,0.1754,0.174,0.1769,0.1768,0.1773,0.1767,0.1769,0.1776,0.1769,0.177,0.1784,0.1786,0.1774,0.1773,0.1772,0.182,0.1777,0.1776,0.1775,0.1787,0.1788,0.179,0,0,0,0,0,0,0.1753,0.1757,0.1769,0.1758,0.1759,0.1768,0.1775,0.1776,0.1802,0.1775,0.1777,0.1815,0.1775,0.1774,0.1786,0.1817,0.1775,0.1774,0.1786,0.1787,0.1789,0.1857,0,0,0,0,0,0,0.1752,0.1756,0.178,0.1759,0.1761,0.178,0.1774,0.1774,0.1804,0.1807,0.1802,0.1801,0.1776,0.1788,0.1785,0.1815,0.1773,0.1784,0.1786,0.1788,0.1854,0.1861,0.1867,0,0,0,0,0,0.1751,0.177,0.1781,0.1785,0.1788,0.1781,0.1779,0.1786,0.1804,0.1815,0.1814,0.1803,0.1799,0.1788,0.1783,0.1814,0.1783,0.1786,0.1788,0.185,0.1859,0.1867,0,0,0,0,0,0,0.176,0.1773,0.1784,0.1807,0.1809,0.1786,0.1806,0.1809,0.1815,0.1835,0.1809,0.1807,0.1837,0.1812,0.18,0.1824,0.1793,0.1795,0.1842,0.185,0.1857,0.188,0.1772,0,0,0,0,0,0.1775,0.18,0.1798,0.1821,0.183,0.1826,0.1833,0.1839,0.1836,0.1843,0.184,0.1838,0.1834,0.1834,0.1829,0.1831,0.1838,0.1851,0.1858,0.1864,0.1881,0.19,0.1911,0.1798,0.1798,0.1798,0,0,0.1786,0.1798,0.1813,0.1827,0.1833,0.184,0.1834,0.1859,0.1869,0.1841,0.187,0.187,0.1844,0.1855,0.1865,0.1842,0.1905,0.1867,0.1873,0.1887,0.1904,0.1915,0.1925,0.1799,0.1799,0.1799,0,0,0.1804,0.1834,0.1856,0.1864,0.1889,0.1881,0.19,0.1904,0.1918,0.1933,0.1925,0.1938,0.1932,0.1914,0.1902,0.1941,0.1948,0.1955,0.1999,0.2017,0.2026,0.2035,0.208,0.2092,0.1948,0.1948,0.1948,0,0.182,0.1843,0.1859,0.1878,0.1892,0.1907,0.1922,0.1928,0.1938,0.1954,0.196,0.1974,0.1954,0.1957,0.1976,0.1956,0.1988,0.1967,0.2027,0.2035,0.2043,0.2086,0.2099,0.1952,0.1951,0.1951,0.1951,0,0.1835,0.187,0.1886,0.1915,0.1928,0.1951,0.196,0.199,0.2017,0.2021,0.2062,0.2038,0.2046,0.2044,0.2022,0.2067,0.2082,0.2042,0.2008,0.2059,0.2101,0.2113,0.1957,0.1955,0.1954,0.1954,0,0,0.1822,0.1885,0.1894,0.1918,0.1956,0.196,0.2,0.2023,0.2053,0.2084,0.2121,0.212,0.2138,0.2127,0.2109,0.2123,0.2202,0.2122,0.2122,0.2172,0.2289,0.2143,0.2142,0.2188,0.219,0.2191,0.2305,0,0.183,0.1875,0.1902,0.1942,0.1962,0.1998,0.2023,0.2056,0.2085,0.2126,0.2141,0.217,0.2157,0.2177,0.2194,0.2202,0.2235,0.2178,0.2228,0.223,0.2097,0.2149,0.2197,0.2314,0.2316,0.2318,0.232,0,0.182,0.1857,0.1904,0.1961,0.1974,0.2004,0.2058,0.2082,0.2142,0.2174,0.2224,0.2241,0.2289,0.2261,0.2325,0.2303,0.2318,0.2318,0.2321,0.2169,0.2104,0.2246,0.234,0.2339,0.2337,0.2336,0.2335,0,0.1779,0.1849,0.1892,0.1912,0.1978,0.2019,0.2058,0.2112,0.2141,0.2222,0.2264,0.2317,0.2361,0.239,0.2408,0.2389,0.2476,0.2428,0.2317,0.2309,0.2377,0.2366,0.248,0.248,0.248,0.2479,0.2479,0,0.1748,0.1785,0.189,0.191,0.1963,0.2017,0.2072,0.2119,0.2193,0.2228,0.2299,0.2329,0.2403,0.2451,0.2454,0.2428,0.2515,0.2346,0.2324,0.2405,0.2396,0.2387,0.2374,0.2484,0.2483,0.2482,0.2481,0,0.1681,0.1753,0.1808,0.1909,0.1947,0.1987,0.2086,0.2111,0.2202,0.2258,0.2297,0.2386,0.2444,0.2493,0.2543,0.247,0.2458,0.2426,0.2554,0.2533,0.2279,0.2269,0.2319,0.2314,0.2311,0.2308,0.2305,0,0.1644,0.1674,0.18,0.1839,0.1895,0.1971,0.201,0.2108,0.2136,0.2259,0.2273,0.2381,0.2422,0.2388,0.2448,0.2457,0.2417,0.241,0.2308,0.2287,0.2261,0.2257,0.2252,0.2299,0.2298,0.2297,0.2297,0,0.1574,0.1643,0.1692,0.1778,0.1842,0.1887,0.1963,0.197,0.2072,0.2185,0.2192,0.221,0.2273,0.2297,0.2328,0.2319,0.2406,0.2371,0.2378,0.2281,0.2264,0.2241,0.224,0.2284,0.2286,0.2287,0.2288,0,0.1531,0.1551,0.1635,0.1689,0.1764,0.1772,0.1823,0.1855,0.1896,0.2031,0.2037,0.2137,0.2252,0.2228,0.2247,0.2237,0.2194,0.2108,0.2127,0.2142,0.2024,0.1973,0.1897,0,0,0,0,0,0.1474,0.1482,0.1532,0.1576,0.1643,0.1685,0.1768,0.1818,0.1926,0.1883,0.1951,0.1991,0.2011,0.2066,0.2019,0.2175,0.2209,0.211,0.2121,0.2214,0.2229,0.2102,0,0,0,0,0,0,0.1436,0.1482,0.1493,0.1468,0.1477,0.1527,0.1573,0.165,0.163,0.1755,0.1777,0.1881,0.1934,0.2023,0.1986,0.2004,0.1971,0.2187,0.2182,0.2206,0.2219,0.2231,0.2106,0,0,0,0,0]},{"header":{"parameterUnit":"m.s-1","parameterCategory":2,"la1":30.2991,"la2":30.254,"lo1":-89.0895,"lo2":-89.0444,"dy":0.0017,"dx":0.0017,"nx":28,"ny":28,"refTime":"2023-10-02T21:00:00:Z","depth":"4","parameterNumber":3,"parameterNumberName":"V-component_of_CURRENTS"},"data":[0,0,0,0,0,0,0,0,0,0,0,0,0,0,0,0,0,0,0,0,0,0,0,0,0,0,0,0,0,0,0,0,0,0,0,0,0,0,0,0,0,0,0,0,0,0,0,0,0,0,0,0,0,0,0,0,0,0,0.0119,0.0119,0,0.0111,0.0111,0.0111,0.0106,0.0106,0.0106,0.0105,0.0086,0.0086,0.0086,0,0,0,0,0,0,0,0,0,0,0,0,0,0.0123,0.0123,0.0119,0.0119,0.0119,0.0111,0.0111,0.0111,0.0106,0.0106,0.0105,0.0105,0.0087,0.0086,0.0086,0,0,0,0,0,0,0,0,0,0,0,0,0,0.012,0.0123,0.0119,0.0114,0.0114,0.0111,0.0111,0.0111,0.0106,0.0106,0.0105,0.0105,0.0087,0.0086,0.0086,0.0087,0,0,0.0084,0.0084,0,0,0,0,0,0,0,0,0.012,0.012,0.0115,0.0115,0.0114,0.0108,0.0105,0.0102,0.0106,0.011,0.0105,0.0105,0.0092,0.0091,0.0092,0.0086,0.0085,0.0084,0.0084,0.0083,0.0083,0,0,0,0,0,0,0,0.012,0.012,0.0118,0.0115,0.0114,0.011,0.0109,0.0105,0.0103,0.011,0.0109,0.0106,0.0092,0.0093,0.0092,0.0085,0.0084,0.0084,0.0083,0.0083,0.0095,0.0095,0,0,0,0,0,0,0.0119,0.0121,0.0118,0.0117,0.0115,0.011,0.0109,0.0111,0.0104,0.0102,0.0106,0.0106,0.0094,0.0092,0.0091,0.0112,0.0083,0.0083,0.0083,0.0094,0.0095,0.0096,0,0,0,0,0,0,0.012,0.0119,0.0118,0.0117,0.0117,0.011,0.0112,0.0111,0.0116,0.0101,0.0099,0.0112,0.0093,0.0092,0.0092,0.011,0.0083,0.0082,0.0093,0.0094,0.0095,0.0141,0,0,0,0,0,0,0.012,0.012,0.0125,0.0117,0.0116,0.0123,0.0112,0.0111,0.0114,0.0113,0.0105,0.0103,0.0093,0.0093,0.0091,0.0109,0.0082,0.0093,0.0094,0.0095,0.0139,0.0143,0.0147,0,0,0,0,0,0.012,0.013,0.0125,0.0125,0.0122,0.0124,0.0123,0.0118,0.0114,0.0121,0.0114,0.0104,0.0099,0.0093,0.0091,0.0109,0.0092,0.0094,0.0095,0.0137,0.0142,0.0147,0,0,0,0,0,0,0.0134,0.013,0.0125,0.0132,0.013,0.0122,0.0128,0.0123,0.0123,0.0124,0.0109,0.0107,0.0113,0.0104,0.0097,0.0116,0.0095,0.0096,0.0128,0.0133,0.0137,0.0139,0.0081,0,0,0,0,0,0.0139,0.0147,0.0137,0.0145,0.0144,0.0137,0.0138,0.0135,0.0131,0.0131,0.0124,0.0119,0.0118,0.0119,0.0114,0.0124,0.0097,0.0135,0.0139,0.0143,0.0144,0.0121,0.0123,0.01,0.01,0.01,0,0,0.0147,0.0145,0.0149,0.0149,0.0147,0.0156,0.0138,0.0143,0.0154,0.0129,0.0142,0.0131,0.0123,0.0133,0.0137,0.0129,0.0134,0.0145,0.0148,0.0147,0.0123,0.0125,0.0126,0.0101,0.0101,0.0101,0,0,0.0168,0.0165,0.0178,0.0178,0.0177,0.0173,0.0176,0.0172,0.0174,0.0181,0.0167,0.0166,0.0165,0.0164,0.0163,0.0188,0.0155,0.019,0.0218,0.0196,0.0197,0.0198,0.0158,0.0155,0.0196,0.0196,0.0196,0,0.0177,0.0192,0.0182,0.0194,0.0201,0.0184,0.0202,0.0201,0.0198,0.0203,0.0191,0.019,0.0181,0.0197,0.0205,0.0199,0.0172,0.02,0.0201,0.0202,0.0202,0.016,0.0156,0.0198,0.0198,0.0198,0.0197,0,0.0206,0.0219,0.0228,0.024,0.0245,0.0258,0.0253,0.0261,0.0257,0.0252,0.026,0.0244,0.0243,0.0244,0.0232,0.0238,0.0212,0.0206,0.0187,0.0207,0.0162,0.0157,0.0202,0.0201,0.02,0.0199,0,0,0.0228,0.0246,0.0251,0.0268,0.0272,0.0284,0.0301,0.0313,0.033,0.0315,0.0333,0.0324,0.0305,0.0303,0.0288,0.0272,0.0247,0.0243,0.024,0.0201,0.018,0.0151,0.0143,0.0239,0.0238,0.0238,0.0144,0,0.0257,0.0293,0.0294,0.0335,0.0354,0.0349,0.0371,0.0377,0.0374,0.0385,0.0361,0.037,0.0331,0.0338,0.0311,0.0268,0.0237,0.0271,0.0168,0.0165,0.0136,0.0138,0.0237,0.014,0.0139,0.0138,0.0138,0,0.029,0.0311,0.0355,0.0391,0.04,0.0423,0.0457,0.0473,0.0473,0.0471,0.0458,0.0432,0.041,0.0377,0.029,0.0312,0.0246,0.0204,0.0199,0.0154,0.0127,0.0119,0.0128,0.0129,0.013,0.013,0.0131,0,0.0321,0.0357,0.0399,0.041,0.0443,0.0471,0.0492,0.0503,0.053,0.0528,0.0541,0.049,0.0482,0.0393,0.029,0.0291,0.0185,0.0176,0.0081,0.0078,0.0111,0.0111,0.0107,0.0107,0.0107,0.0108,0.0108,0,0.0354,0.0388,0.0421,0.0446,0.0506,0.0513,0.0574,0.0584,0.0606,0.0644,0.059,0.0598,0.0486,0.041,0.0303,0.017,0.0186,0.008,0.0055,0.0131,0.0134,0.0106,0.0107,0.0104,0.0105,0.0106,0.0106,0,0.0381,0.0401,0.0454,0.0501,0.0525,0.057,0.0638,0.0675,0.0687,0.0735,0.074,0.0682,0.0576,0.0442,0.0299,0.0198,0.0073,0.002,0.0098,0.0079,-0.0027,-0.0022,-0.0095,-0.0096,-0.0098,-0.0099,-0.01,0,0.0397,0.0428,0.0499,0.0539,0.0568,0.0634,0.0684,0.0719,0.076,0.0784,0.081,0.0728,0.0666,0.0435,0.0284,0.006,0.003,-0.0046,-0.0029,-0.0029,-0.0046,-0.0039,-0.0033,-0.0102,-0.0103,-0.0103,-0.0104,0,0.0429,0.0457,0.0501,0.0582,0.0647,0.0719,0.0791,0.0828,0.087,0.0882,0.0866,0.075,0.0624,0.0435,0.0256,0.0099,0.0,-0.0062,-0.0059,-0.0044,-0.0039,-0.0053,-0.0045,-0.0109,-0.0108,-0.0107,-0.0107,0,0.0457,0.049,0.0551,0.0622,0.0704,0.0782,0.0817,0.0864,0.0905,0.0926,0.0915,0.078,0.0704,0.0454,0.0293,0.0129,0.0087,0.0035,0.0032,0.0035,0.0099,0.0126,0.0083,0,0,0,0,0,0.0478,0.0516,0.0583,0.0664,0.0743,0.0794,0.088,0.0907,0.0949,0.0945,0.0933,0.0814,0.0577,0.0474,0.0304,0.0253,0.0049,0.0046,-0.0014,-0.0137,-0.0131,-0.0081,0,0,0,0,0,0,0.0492,0.0556,0.0583,0.0685,0.0742,0.0837,0.0895,0.0923,0.0919,0.0931,0.0807,0.0758,0.0524,0.0671,0.0296,0.0247,0.0182,-0.0061,-0.0066,-0.014,-0.0135,-0.013,-0.0077,0,0,0,0,0]}]]